This is the latest recevied weather packets stored in our database for station/object W5ITZ. If no packets are shown the sender has not sent any weather packets the latest 10 day(s).
| Time | Temp. | Humidity | Pressure | Rain* | Wind** | Luminosity | Snow |
|---|---|---|---|---|---|---|---|
| 1778117916 | 25.56° C | 92% | 1009.7 hPa | 0 mm | - | 0 W/m² | - |
| 1778117613 | 25.56° C | 92% | 1009.5 hPa | 0 mm | - | 0 W/m² | - |
| 1778117311 | 25.56° C | 92% | 1009.3 hPa | 0 mm | - | 0 W/m² | - |
| 1778117006 | 25.56° C | 91% | 1009.4 hPa | 0 mm | - | 0 W/m² | - |
| 1778116704 | 26.11° C | 91% | 1009.4 hPa | 0 mm | - | 0 W/m² | - |
| 1778116401 | 26.11° C | 90% | 1009.5 hPa | 0 mm | - | 1 W/m² | - |
| 1778116100 | 26.11° C | 90% | 1009.4 hPa | 0 mm | - | 2 W/m² | - |
| 1778115796 | 26.11° C | 90% | 1009.4 hPa | 0 mm | - | 4 W/m² | - |
| 1778115494 | 26.67° C | 89% | 1009.3 hPa | 0 mm | - | 5 W/m² | - |
| 1778115190 | 26.67° C | 89% | 1009.2 hPa | 0 mm | - | 7 W/m² | - |
| 1778114887 | 26.67° C | 89% | 1008.9 hPa | 0 mm | - | 11 W/m² | - |
| 1778114584 | 26.67° C | 88% | 1009.1 hPa | 0 mm | - | 14 W/m² | - |
| 1778114281 | 26.67° C | 88% | 1009.2 hPa | 0 mm | - | 16 W/m² | - |
| 1778113976 | 27.22° C | 87% | 1009.1 hPa | 0 mm | - | 19 W/m² | - |
| 1778113672 | 27.22° C | 86% | 1008.9 hPa | 0 mm | - | 23 W/m² | - |
| 1778113368 | 27.22° C | 86% | 1008.9 hPa | 0 mm | - | 26 W/m² | - |
| 1778113065 | 27.22° C | 85% | 1008.7 hPa | 0 mm | - | 30 W/m² | - |
| 1778112763 | 27.78° C | 85% | 1008.9 hPa | 0 mm | - | 42 W/m² | - |
| 1778112459 | 27.78° C | 85% | 1008.6 hPa | 0 mm | - | 56 W/m² | - |
| 1778112155 | 27.78° C | 84% | 1008.9 hPa | 0 mm | - | 60 W/m² | - |
| 1778111851 | 27.78° C | 84% | 1008.7 hPa | 0 mm | - | 65 W/m² | - |
| 1778111547 | 27.78° C | 84% | 1008.5 hPa | 0 mm | - | 98 W/m² | - |
| 1778111244 | 27.78° C | 84% | 1008.4 hPa | 0 mm | - | 103 W/m² | - |
| 1778110941 | 27.78° C | 84% | 1008.4 hPa | 0 mm | - | 114 W/m² | - |
| 1778110639 | 27.78° C | 84% | 1008.3 hPa | 0 mm | - | 125 W/m² | - |
* Rain latest hour (hover to see other rain measurements)
** Current wind speed in m/s (hover to see current wind gust speed)